Lexington Weather

Lexington, Massachusetts, USA

37°F
3/2/2024 7:30am 
  • Lexington Conditions: Light rain, Overcast
  • Temperature: 37.2°F / 2.9°CWarmer 0.9°F than last hour.
  • Dew Point: 31.6°FIncreased 1.2°Fsince last hour.
  • Relative Humidity: 80%Increased 1.0% since last hour.
  • Wind: Calm, 10-min avg: Calm, gust: None
  • Barometer: 30.46 in Steady
  • Visibility: 10 miles
  • Rain Today: 0.00 in
  •   

Regional Weather Roundup
for Boston, MA

        
000
ASUS41 KBOX 292010
RWRBOX

REGIONAL WEATHER ROUNDUP
NATIONAL WEATHER SERVICE BOSTON/NORTON MA
300 PM EST THU FEB 29 2024

NOTE:  "FAIR" INDICATES FEW OR NO CLOUDS BELOW 12,000 FEET WITH NO 
SIGNIFICANT WEATHER AND/OR OBSTRUCTIONS TO VISIBILITY.

MAZALL-292100-
EASTERN MASSACHUSETTS
  
CITY           SKY/WX    TMP DP  RH WIND       PRES   REMARKS
BOSTON         MOSUNNY   33  12  41 W24G35    30.15R WCI  20          
BEVERLY        CLOUDY    32   7  35 W21G33    30.13R WCI  20          
LAWRENCE       CLOUDY    30   5  34 W15G37    30.14R WCI  19          
BEDFORD        MOSUNNY   30   4  33 W22G36    30.14R WCI  17          
NORWOOD        PTSUNNY   34   7  32 W15G28    30.17R WCI  24          
MARSHFIELD     PTSUNNY   34   5  29 W13G25    30.15F WCI  25          
PLYMOUTH       MOSUNNY   34   7  32 W21G38    30.15R WCI  22          
TAUNTON        MOSUNNY   36   9  32 W18G31    30.17R WCI  26          
NEW BEDFORD    MOSUNNY   36  10  34 W17G30    30.16F WCI  26          
$$

MAZALL-292100-
CAPE COD AND THE ISLANDS
  
CITY           SKY/WX    TMP DP  RH WIND       PRES   REMARKS
FALMOUTH       MOSUNNY   34   5  29 W26G35    30.17S WCI  21          
HYANNIS        MOSUNNY   34   7  32 W17G35    30.14F WCI  23          
CHATHAM        PTSUNNY   35   9  33 NW10G25   30.17R WCI  27          
PROVINCETOWN   PTSUNNY   34   9  35 W18G32    30.16S WCI  23          
NANTUCKET      MOSUNNY   36  13  38 W24G35    30.19R WCI  24          
MARTHAS VNYRD  MOSUNNY   36   8  31 NW17      30.18S WCI  26          
$$
 
MAZALL-292100-
CENTRAL AND WESTERN MASSACHUSETTS
  
CITY           SKY/WX    TMP DP  RH WIND       PRES   REMARKS
WORCESTER      CLOUDY    27   7  42 W20G40    30.11R WCI  13          
FITCHBURG      MOSUNNY   28   7  41 W17G30    30.17R WCI  16          
ORANGE         CLOUDY    26  10  50 W9G24     30.17R WCI  17          
SPRINGFIELD    PTSUNNY   34   8  33 W17G25    30.17R WCI  24          
WESTFIELD      PTSUNNY   30  12  47 NW21G36   30.21R WCI  17          
NORTH ADAMS    PTSUNNY   28   6  39 W22G40    30.18R WCI  14          
PITTSFIELD     PTSUNNY   24   9  52 NW23G40   30.14R WCI   9          
$$
 
RIZALL-292100-
RHODE ISLAND
  
CITY           SKY/WX    TMP DP  RH WIND       PRES   REMARKS
PROVIDENCE     MOSUNNY   36   9  32 W21G36    30.18F WCI  25          
NEWPORT        MOSUNNY   35  12  38 W14G23    30.17F WCI  26          
BLOCK ISLAND   PTSUNNY   36  11  35 W18G36    30.21R WCI  26          
SMITHFIELD     MOSUNNY   33   7  33 W17G31    30.17R WCI  22          
WESTERLY       SUNNY     38   7  27 W10G18    30.19R WCI  31          
$$
 
CTZALL-292100-
CONNECTICUT
  
CITY           SKY/WX    TMP DP  RH WIND       PRES   REMARKS
BRADLEY INTL   PTSUNNY   32  11  41 NW18      30.21R WCI  20          
HARTFORD       MOSUNNY   35  13  40 NW17G29   30.22R WCI  25          
PLAINVILLE     MOCLDY    34  11  37 NW7       30.21R WCI  28          
BRIDGEPORT     MOSUNNY   39   9  29 NW20G31   30.23R WCI  29          
DANBURY        MOSUNNY   37   9  31 NW16G26   30.23R WCI  28          
GROTON         MOSUNNY   39   8  27 W20G30    30.20R WCI  29          
NEW HAVEN      MOSUNNY   40  14  34 NW18G29   30.22R WCI  31          
CHESTER        SUNNY     37   3  23 W10G23    30.19R WCI  30          
MERIDEN        MOSUNNY   35   5  28 NW13G28   30.21R WCI  26          
WILLIMANTIC    PTSUNNY   34  10  37 W15G26    30.21R WCI  24          
OXFORD         MOSUNNY   33   8  35 W16G25    30.19R WCI  23          
$$

MEZ002-015-021-024-NHZ003-005-008-011-012-014-VTZ005-008-292100-
NORTHERN NEW ENGLAND
  
CITY           SKY/WX    TMP DP  RH WIND       PRES   REMARKS
PORTLAND ME    PTSUNNY   27   0  31 W30G38    30.08R WCI  11          
BANGOR ME      PTSUNNY   20  -4  34 W23G49    30.00R WCI   3          
CONCORD NH     MOSUNNY   26   3  37 W18G32    30.11R WCI  13          
MANCHESTER NH  MOSUNNY   31   2  29 W21G38    30.11S WCI  18          
NASHUA NH      CLOUDY    29   6  38 W20G38    30.15R WCI  16          
PORTSMOUTH NH  MOSUNNY   31   0  26 W18G26    30.10R WCI  19          
JAFFREY NH     CLOUDY    27   3  35 W16G29    30.09R WCI  15          
KEENE NH       MOSUNNY   27   6  41 W22G29    30.14S WCI  13          
BURLINGTON VT  PTSUNNY   22  -4  32 NW20G30   30.17R WCI   7          
MT. WASHINGTON BLWGSNOW  -9  -9 100 W66G76      N/A  VSB 1/16WCI -48  
$$

NYZ052-076-292100-
EASTERN NEW YORK
  
CITY           SKY/WX    TMP DP  RH WIND       PRES   REMARKS
ALBANY         FLURRIES  31   7  36 W25G38    30.25R WCI  17          
NEW YORK CITY  MOSUNNY   40  11  30 NW16G29   30.25S WCI  31          
$$
 
ANZALL-292100-
MARINE OBSERVATIONS
  
STATION/POSITION TIME  TEMP    WIND        PRES    VSBY  WAVE
                       AIR SEA DIR/SP/G                  HT/PER
                 (UTC) (F)     (DEG/KT/KT) (MB)    (MI)  (FT/S)
BOSTON BUOY      1950   32 40  270/ 25/ 31 1020.3R         5/ 5
BUZZARDS BAY     1900   33     280/ 21/ 24 1022.8F
NANTUCKET SOUND  1950   34 39  290/ 17/ 23 1021.6R         3/ 4
MASS BAY-STELLWA 1804   32 40  290/ 21/ 29 1020.2F  1 7/8  4/ 5
ISLE OF SHOALS   1800   28     290/ 36/ 42 1017.5R
S OF BLOCK IS    1956      42                N/A           8/ 7
$$

......................KEY.........................
  SKY/WX - SKY CONDITION/PRESENT WEATHER
  TMP    - TEMPERATURE IN FAHRENHEIT
  DWPT   - DEWPOINT IN FAHRENHEIT
  RH     - RELATIVE HUMIDITY IN PERCENT
  WIND   - DIRECTION AND SPEED IN MPH
  PRES   - MEAN SEA LEVEL PRESSURE IN INCHES OF HG
  WCI    - WIND CHILL INDEX
  VSB    - VISIBILITY IN MILES
  HX     - HEAT INDEX
  TC     - TEMPERATURE IN CELSIUS
  VRB    - VARIABLE WIND DIRECTION
  N/A    - NOT AVAILABLE
  
      

Other recent Regional Weather Roundups

Sat Mar 2, 7:10am EST

Sat Mar 2, 6:10am EST

Sat Mar 2, 5:10am EST

Sat Mar 2, 4:10am EST

Sat Mar 2, 3:10am EST

Sat Mar 2, 2:10am EST

Sat Mar 2, 1:10am EST

Sat Mar 2, 12:10am EST

Fri Mar 1, 11:10pm EST

Fri Mar 1, 10:10pm EST

Fri Mar 1, 9:10pm EST

Fri Mar 1, 8:10pm EST

Fri Mar 1, 7:10pm EST

Fri Mar 1, 6:10pm EST

Fri Mar 1, 5:10pm EST

Fri Mar 1, 4:10pm EST

Fri Mar 1, 3:10pm EST

Fri Mar 1, 2:10pm EST

Fri Mar 1, 1:10pm EST

Fri Mar 1, 12:10pm EST

Fri Mar 1, 11:10am EST

Fri Mar 1, 10:10am EST

Fri Mar 1, 9:10am EST

Fri Mar 1, 8:10am EST

Fri Mar 1, 7:10am EST

Fri Mar 1, 6:10am EST

Fri Mar 1, 5:10am EST

Fri Mar 1, 4:10am EST

Fri Mar 1, 3:10am EST

Fri Mar 1, 2:10am EST

Fri Mar 1, 1:10am EST

Fri Mar 1, 12:10am EST

Thu Feb 29, 11:10pm EST

Thu Feb 29, 10:10pm EST

Thu Feb 29, 9:10pm EST

Thu Feb 29, 8:10pm EST

Thu Feb 29, 7:10pm EST

Thu Feb 29, 6:10pm EST

Thu Feb 29, 5:10pm EST

Thu Feb 29, 4:10pm EST

Thu Feb 29, 2:10pm EST

Thu Feb 29, 1:10pm EST

Thu Feb 29, 12:10pm EST

Thu Feb 29, 11:10am EST

Thu Feb 29, 10:10am EST

Thu Feb 29, 9:10am EST

Thu Feb 29, 8:10am EST

Thu Feb 29, 7:10am EST

Thu Feb 29, 6:10am EST

Thu Feb 29, 5:10am EST

Thu Feb 29, 4:10am EST

Thu Feb 29, 3:10am EST

Thu Feb 29, 2:10am EST

Thu Feb 29, 1:10am EST

Thu Feb 29, 12:10am EST

Wed Feb 28, 11:10pm EST

Wed Feb 28, 10:10pm EST

Wed Feb 28, 9:10pm EST

Wed Feb 28, 8:10pm EST

Wed Feb 28, 7:10pm EST

Wed Feb 28, 6:10pm EST

Wed Feb 28, 5:10pm EST

Wed Feb 28, 4:10pm EST

Wed Feb 28, 3:10pm EST

Wed Feb 28, 2:10pm EST

Wed Feb 28, 1:10pm EST

Wed Feb 28, 12:10pm EST

Wed Feb 28, 11:10am EST

Wed Feb 28, 10:10am EST

Wed Feb 28, 9:10am EST

Wed Feb 28, 8:10am EST

Wed Feb 28, 7:10am EST

Wed Feb 28, 6:10am EST

Wed Feb 28, 5:10am EST

Wed Feb 28, 4:10am EST

Wed Feb 28, 3:10am EST

Wed Feb 28, 2:10am EST

Wed Feb 28, 1:10am EST

Wed Feb 28, 12:10am EST

Tue Feb 27, 11:10pm EST

Tue Feb 27, 10:10pm EST

Tue Feb 27, 9:10pm EST

Tue Feb 27, 8:10pm EST

Tue Feb 27, 7:10pm EST

Tue Feb 27, 6:10pm EST

Tue Feb 27, 5:10pm EST

Tue Feb 27, 4:10pm EST

Tue Feb 27, 3:10pm EST

Tue Feb 27, 2:10pm EST

Tue Feb 27, 1:10pm EST

Tue Feb 27, 12:10pm EST

Tue Feb 27, 11:10am EST

Tue Feb 27, 10:10am EST

Tue Feb 27, 9:10am EST

Tue Feb 27, 8:10am EST

Tue Feb 27, 7:10am EST

Tue Feb 27, 6:10am EST

Tue Feb 27, 5:10am EST

Tue Feb 27, 4:10am EST

Tue Feb 27, 3:10am EST

Tue Feb 27, 2:10am EST

Tue Feb 27, 1:10am EST

Tue Feb 27, 12:10am EST

Mon Feb 26, 11:10pm EST

Mon Feb 26, 10:10pm EST

Mon Feb 26, 9:10pm EST

Mon Feb 26, 8:10pm EST

Mon Feb 26, 7:10pm EST

Mon Feb 26, 6:10pm EST

Mon Feb 26, 5:10pm EST

Mon Feb 26, 4:10pm EST

Mon Feb 26, 3:10pm EST

Mon Feb 26, 2:10pm EST

Mon Feb 26, 1:10pm EST

Mon Feb 26, 12:10pm EST

Mon Feb 26, 11:10am EST

Mon Feb 26, 10:10am EST

Mon Feb 26, 9:10am EST

Mon Feb 26, 8:10am EST

Mon Feb 26, 7:10am EST

Mon Feb 26, 6:10am EST

Mon Feb 26, 5:10am EST

Mon Feb 26, 4:10am EST

Mon Feb 26, 3:10am EST

Mon Feb 26, 2:10am EST

Mon Feb 26, 1:10am EST

Mon Feb 26, 12:10am EST

Sun Feb 25, 11:10pm EST

Sun Feb 25, 10:10pm EST

Sun Feb 25, 9:10pm EST

Sun Feb 25, 8:10pm EST

Sun Feb 25, 7:10pm EST

Sun Feb 25, 6:10pm EST

Sun Feb 25, 5:10pm EST

Sun Feb 25, 4:10pm EST

Sun Feb 25, 3:10pm EST

Sun Feb 25, 2:10pm EST

Sun Feb 25, 1:10pm EST

Sun Feb 25, 12:10pm EST

Sun Feb 25, 11:10am EST

Sun Feb 25, 10:10am EST

Sun Feb 25, 9:10am EST

Sun Feb 25, 8:10am EST

Sun Feb 25, 7:10am EST

Sun Feb 25, 6:10am EST

Sun Feb 25, 5:10am EST

Sun Feb 25, 4:10am EST

Sun Feb 25, 3:10am EST

Sun Feb 25, 2:10am EST

Sun Feb 25, 1:10am EST

Sun Feb 25, 12:10am EST

Sat Feb 24, 11:10pm EST

Sat Feb 24, 10:10pm EST

Sat Feb 24, 9:10pm EST

Sat Feb 24, 8:10pm EST

Sat Feb 24, 7:10pm EST

Sat Feb 24, 6:10pm EST

Sat Feb 24, 5:10pm EST

Sat Feb 24, 4:10pm EST

Sat Feb 24, 3:10pm EST

Sat Feb 24, 2:10pm EST

Sat Feb 24, 1:10pm EST

Sat Feb 24, 12:10pm EST

Sat Feb 24, 11:10am EST

Sat Feb 24, 10:10am EST

Sat Feb 24, 9:10am EST

Sat Feb 24, 8:10am EST